EW4944 Weather Reports


Display with metric or nautical units.
time (UTC)temp
F
wind
direction
speed
MPH
gust
MPH
rain 1hr
in
rain 24hr
in
rain mn
in
humidity
%
barometer
mb
20260509203554 56 0.0 0.0 0.05 0.21 0.21 94 1010.9
20260509203056 56 0.0 0.0 0.06 0.21 0.21 94 1010.8
20260509202554 56 0.0 0.0 0.07 0.21 0.21 94 1010.6
20260509202100 56 0.0 0.0 0.07 0.21 0.21 94 1010.7
20260509201603 56 0.0 0.0 0.08 0.21 0.21 94 1010.8
20260509201057 56 0.0 0.0 0.09 0.21 0.21 93 1010.9
20260509200556 56 5.0 0.0 0.09 0.21 0.21 93 1010.8
20260509200104 56 5.0 11.0 0.09 0.21 0.21 93 1011.1
20260509195600 56 231 5.0 11.0 0.08 0.19 0.19 93 1011.4
20260509195056 56 259 4.0 11.0 0.08 0.18 0.18 93 1011.3
20260509194606 56 197 4.0 11.0 0.07 0.17 0.17 93 1011.3
20260509194057 56 236 3.0 11.0 0.08 0.17 0.17 93 1011.3
20260509193558 56 219 3.0 13.0 0.08 0.16 0.16 93 1011.4
20260509193058 56 202 1.0 14.0 0.08 0.15 0.15 93 1011.3
20260509192600 56 232 5.0 14.0 0.08 0.14 0.14 92 1011.2
20260509192057 56 200 6.0 12.0 0.08 0.14 0.14 92 1011.0
20260509191603 56 169 2.0 8.0 0.09 0.13 0.13 92 1010.9
20260509191059 57 173 3.0 11.0 0.12 0.12 0.12 92 1011.0
20260509190554 57 153 2.0 11.0 0.12 0.12 0.12 92 1010.9
20260509190109 57 180 3.0 10.0 0.12 0.12 0.12 91 1010.9
20260509185555 57 198 3.0 6.0 0.11 0.11 0.11 91 1010.8
20260509185056 57 187 1.0 8.0 0.10 0.10 0.10 91 1010.6
20260509184558 57 192 1.0 8.0 0.09 0.09 0.09 90 1010.9
20260509184057 57 167 2.0 6.0 0.09 0.09 0.09 90 1010.9
20260509183557 57 202 2.0 5.0 0.08 0.08 0.08 89 1011.1
20260509183101 57 188 2.0 6.0 0.07 0.07 0.07 88 1011.1
20260509182553 58 222 0.0 9.0 0.06 0.06 0.06 87 1010.8
20260509182054 58 222 1.0 10.0 0.06 0.06 0.06 84 1010.8
20260509181600 59 194 5.0 10.0 0.04 0.04 0.04 82 1011.3
20260509181057 60 208 3.0 10.0 0.00 0.00 0.00 80 1011.2
20260509180557 61 193 4.0 10.0 0.00 0.00 0.00 79 1010.9
20260509175555 61 197 3.0 9.0 0.00 0.00 0.00 77 1010.7
20260509175057 61 202 4.0 9.0 0.00 0.00 0.00 76 1010.6
20260509174556 62 231 3.0 9.0 0.00 0.00 0.00 76 1010.5
20260509174057 62 142 3.0 10.0 0.00 0.00 0.00 76 1010.2
20260509173554 62 184 4.0 10.0 0.00 0.00 0.00 75 1010.4
20260509173056 63 191 1.0 9.0 0.00 0.00 0.00 75 1010.6
20260509172557 62 193 3.0 9.0 0.00 0.00 0.00 74 1010.6
20260509172054 62 167 1.0 7.0 0.00 0.00 0.00 75 1010.8
20260509171556 63 231 4.0 7.0 0.00 0.00 0.00 72 1010.7
20260509171057 63 135 3.0 7.0 0.00 0.00 0.00 76 1010.7
20260509170557 63 246 1.0 7.0 0.00 0.00 0.00 75 1010.9
20260509170107 62 252 2.0 7.0 0.00 0.00 0.00 75 1011.0
20260509165557 62 163 2.0 7.0 0.00 0.00 0.00 76 1011.1
20260509165057 62 204 3.0 7.0 0.00 0.00 0.00 75 1011.3
20260509164558 62 123 2.0 7.0 0.00 0.00 0.00 77 1011.4
20260509164054 61 0 2.0 7.0 0.00 0.00 0.00 75 1011.5
20260509163556 61 138 1.0 4.0 0.00 0.00 0.00 78 1011.6
20260509163058 60 107 0.0 4.0 0.00 0.00 0.00 77 1011.5
20260509162555 59 107 1.0 7.0 0.00 0.00 0.00 78 1011.6
20260509162055 59 105 2.0 7.0 0.00 0.00 0.00 78 1011.7
20260509161600 60 71 3.0 7.0 0.00 0.00 0.00 79 1011.7
20260509161054 59 100 2.0 6.0 0.00 0.00 0.00 80 1011.8
20260509160554 58 144 1.0 5.0 0.00 0.00 0.00 80 1011.8
20260509160057 58 96 1.0 5.0 0.00 0.00 0.00 81 1011.8
20260509155557 57 163 1.0 6.0 0.00 0.00 0.00 81 1011.8
20260509155053 58 99 2.0 8.0 0.00 0.00 0.00 81 1011.9
20260509154559 57 142 0.0 8.0 0.00 0.00 0.00 81 1012.0
20260509154057 57 78 3.0 8.0 0.00 0.00 0.00 81 1011.9
20260509153557 58 136 3.0 8.0 0.00 0.00 0.00 81 1011.9
20260509153101 58 99 3.0 8.0 0.00 0.00 0.00 81 1011.9
20260509152612 58 119 2.0 7.0 0.00 0.00 0.00 81 1012.1
20260509152056 58 71 2.0 7.0 0.00 0.00 0.00 81 1012.1
20260509151600 59 129 2.0 8.0 0.00 0.00 0.00 81 1012.0
20260509151056 59 137 4.0 8.0 0.00 0.00 0.00 81 1012.1
20260509150556 58 185 1.0 5.0 0.00 0.00 0.00 81 1012.2
20260509150058 58 193 2.0 7.0 0.00 0.00 0.00 81 1012.2
20260509145556 57 168 3.0 7.0 0.00 0.00 0.00 83 1012.2
20260509145058 57 188 1.0 7.0 0.00 0.00 0.00 82 1012.1
20260509144554 57 91 2.0 7.0 0.00 0.00 0.00 84 1012.2
20260509144055 57 183 2.0 7.0 0.00 0.00 0.00 83 1012.3
20260509143600 57 161 3.0 8.0 0.00 0.00 0.00 82 1011.9
20260509143056 57 83 4.0 8.0 0.00 0.00 0.00 83 1011.8
20260509142556 57 85 2.0 8.0 0.00 0.00 0.00 84 1011.8
20260509142057 57 150 3.0 8.0 0.00 0.00 0.00 85 1012.0
20260509141556 56 155 3.0 8.0 0.00 0.00 0.00 84 1011.8
20260509141058 57 121 2.0 7.0 0.00 0.00 0.00 83 1012.2
20260509140557 57 165 2.0 7.0 0.00 0.00 0.00 85 1012.4
20260509135557 56 92 2.0 7.0 0.00 0.00 0.00 87 1012.2
20260509135055 55 150 2.0 7.0 0.00 0.00 0.00 88 1012.0
20260509134626 54 157 1.0 5.0 0.00 0.00 0.00 88 1012.0
20260509134059 54 140 1.0 8.0 0.00 0.00 0.00 88 1012.1
20260509133557 54 68 2.0 8.0 0.00 0.00 0.00 89 1011.9
20260509133058 54 136 1.0 6.0 0.00 0.00 0.00 88 1012.0
20260509132557 54 97 2.0 6.0 0.00 0.00 0.00 89 1012.0
20260509132056 54 74 1.0 10.0 0.00 0.00 0.00 89 1012.1
20260509131555 54 78 3.0 10.0 0.00 0.00 0.00 89 1012.3
20260509131053 54 103 1.0 6.0 0.00 0.00 0.00 89 1012.4
20260509130557 54 53 2.0 7.0 0.00 0.00 0.00 90 1012.3
20260509130055 53 80 2.0 7.0 0.00 0.00 0.00 90 1012.5
20260509125557 53 157 1.0 4.0 0.00 0.00 0.00 89 1012.6
20260509125053 53 80 2.0 10.0 0.00 0.00 0.00 89 1012.8
20260509124556 53 107 2.0 10.0 0.00 0.00 0.00 89 1012.8
20260509124056 53 94 3.0 10.0 0.00 0.00 0.00 89 1012.7
20260509123553 53 0 2.0 8.0 0.00 0.00 0.00 89 1012.9
20260509123059 53 155 2.0 8.0 0.00 0.00 0.00 89 1012.9
20260509122557 53 109 2.0 9.0 0.00 0.00 0.00 90 1012.9
20260509122056 52 69 2.0 9.0 0.00 0.00 0.00 89 1012.7
20260509121556 52 81 3.0 9.0 0.00 0.00 0.00 90 1012.7
20260509121056 52 0 1.0 8.0 0.00 0.00 0.00 90 1012.9
20260509120555 52 106 3.0 11.0 0.00 0.00 0.00 90 1012.8
20260509120058 52 84 3.0 11.0 0.00 0.00 0.00 91 1012.9
20260509115555 52 0 2.0 11.0 0.00 0.00 0.00 91 1012.7
20260509115053 51 90 2.0 6.0 0.00 0.00 0.00 91 1012.9
20260509114558 51 71 1.0 5.0 0.00 0.00 0.00 91 1013.1
20260509114057 51 80 1.0 5.0 0.00 0.00 0.00 91 1013.1
20260509113553 51 53 1.0 4.0 0.00 0.00 0.00 91 1013.2
20260509113059 50 53 1.0 5.0 0.00 0.00 0.00 91 1013.1
20260509112553 50 0 0.0 5.0 0.00 0.00 0.00 91 1013.1
20260509112053 50 55 2.0 5.0 0.00 0.00 0.00 91 1013.0
20260509111556 50 51 1.0 4.0 0.00 0.00 0.00 92 1013.1
20260509111053 50 53 0.0 1.0 0.00 0.00 0.00 92 1013.0
20260509110557 50 0.0 0.0 0.00 0.00 0.00 92 1012.8
20260509110054 50 0.0 0.0 0.00 0.00 0.00 92 1012.8
20260509105553 50 0.0 0.0 0.00 0.00 0.00 92 1012.6
20260509105057 50 0.0 0.0 0.00 0.00 0.00 92 1012.5
20260509104558 50 0.0 0.0 0.00 0.00 0.00 92 1012.6
20260509104056 50 0.0 0.0 0.00 0.00 0.00 92 1012.5
20260509103554 49 0.0 0.0 0.00 0.00 0.00 92 1012.3
20260509103059 50 0.0 0.0 0.00 0.00 0.00 92 1012.4
20260509102557 50 0.0 0.0 0.00 0.00 0.00 92 1012.2
20260509102056 50 0.0 0.0 0.00 0.00 0.00 92 1012.3
20260509101605 50 0.0 0.0 0.00 0.00 0.00 92 1012.5
20260509101053 50 0.0 0.0 0.00 0.00 0.00 92 1012.5
20260509100556 50 0.0 0.0 0.00 0.00 0.00 92 1012.3
20260509100055 50 0.0 0.0 0.00 0.00 0.00 92 1012.3
20260509095555 50 0.0 0.0 0.00 0.00 0.00 92 1012.3
20260509095054 50 0.0 0.0 0.00 0.00 0.00 92 1012.4
20260509094558 50 0.0 0.0 0.00 0.00 0.00 92 1012.3
20260509094053 50 0.0 0.0 0.00 0.00 0.00 92 1012.2
20260509093557 50 0.0 0.0 0.00 0.00 0.00 92 1012.2
20260509093059 50 0.0 0.0 0.00 0.00 0.00 92 1012.2
20260509092557 50 0.0 0.0 0.00 0.00 0.00 92 1012.2
20260509092058 50 0.0 0.0 0.00 0.00 0.00 92 1012.5
20260509091556 50 0.0 0.0 0.00 0.00 0.00 92 1012.4
20260509091057 50 0.0 0.0 0.00 0.00 0.00 92 1012.4
20260509090557 50 0.0 0.0 0.00 0.00 0.00 92 1012.3
20260509090056 50 0.0 0.0 0.00 0.00 0.00 92 1012.3
20260509085555 50 0.0 0.0 0.00 0.00 0.00 92 1012.4
20260509085055 50 0.0 0.0 0.00 0.00 0.00 91 1012.3
20260509084554 50 0.0 0.0 0.00 0.00 0.00 91 1012.4
20260509084058 50 0.0 0.0 0.00 0.00 0.00 91 1012.4
20260509083556 50 0.0 0.0 0.00 0.00 0.00 91 1012.3
20260509083057 50 0.0 0.0 0.00 0.00 0.00 91 1012.3
20260509082557 50 0.0 0.0 0.00 0.00 0.00 90 1012.2
20260509082057 50 0.0 0.0 0.00 0.00 0.00 90 1012.2
20260509081601 50 0.0 0.0 0.00 0.00 0.00 90 1012.2
20260509081056 50 0.0 0.0 0.00 0.00 0.00 90 1012.3
20260509080556 50 0.0 0.0 0.00 0.00 0.00 90 1012.3
20260509080055 50 0.0 0.0 0.00 0.00 0.00 89 1012.2
20260509075556 50 0.0 0.0 0.00 0.00 0.00 89 1012.3
20260509075056 50 0.0 0.0 0.00 0.00 0.00 89 1012.3
20260509074605 50 0.0 0.0 0.00 0.00 0.00 88 1012.4
20260509074055 50 0.0 0.0 0.00 0.00 0.00 88 1012.5
20260509073555 49 0.0 0.0 0.00 0.00 0.00 88 1012.5
20260509073102 49 0.0 0.0 0.00 0.00 0.00 87 1012.4
20260509072557 49 0.0 0.0 0.00 0.00 0.00 87 1012.4
20260509072056 49 0.0 0.0 0.00 0.00 0.00 87 1012.3
20260509071606 50 0.0 0.0 0.00 0.00 0.00 87 1012.3
20260509071055 50 0.0 0.0 0.00 0.00 0.00 86 1012.3
20260509070557 50 0.0 0.0 0.00 0.00 0.00 86 1012.1
20260509070056 50 0.0 0.0 0.00 0.00 0.00 86 1012.2
20260509065559 50 0.0 0.0 0.00 0.00 0.00 86 1012.0
20260509065056 50 0.0 0.0 0.00 0.00 0.00 85 1012.2
20260509064612 50 0.0 0.0 0.00 0.00 0.00 85 1012.3
20260509064056 50 0.0 0.0 0.00 0.00 0.00 86 1012.4
20260509063555 50 0.0 0.0 0.00 0.00 0.00 86 1012.4
20260509063102 50 0.0 0.0 0.00 0.00 0.00 86 1012.4
20260509062557 50 0.0 0.0 0.00 0.00 0.00 86 1012.5
20260509062056 50 0.0 0.0 0.00 0.00 0.00 86 1012.5
20260509061624 50 0.0 0.0 0.00 0.00 0.00 86 1012.4
20260509061055 50 0.0 0.0 0.00 0.00 0.00 86 1012.6
20260509060559 50 0.0 0.0 0.00 0.00 0.00 87 1012.7
20260509055557 51 0.0 0.0 0.00 0.00 0.00 86 1013.0
20260509055056 51 0.0 0.0 0.00 0.00 0.00 86 1012.8
20260509054557 51 0.0 0.0 0.00 0.00 0.00 86 1012.7
20260509054056 51 0.0 0.0 0.00 0.00 0.00 85 1012.7
20260509053556 51 0.0 0.0 0.00 0.00 0.00 85 1012.8
20260509053100 51 0.0 0.0 0.00 0.00 0.00 85 1012.8
20260509052556 51 0.0 0.0 0.00 0.00 0.00 85 1012.8
20260509052055 51 0.0 0.0 0.00 0.00 0.00 84 1012.7
20260509051558 51 0.0 0.0 0.00 0.00 0.00 84 1012.8
20260509051058 51 0.0 0.0 0.00 0.00 0.00 84 1012.7
20260509050559 51 0.0 0.0 0.00 0.00 0.00 84 1012.7
20260509050108 51 0.0 0.0 0.00 0.00 0.00 84 1012.8
20260509045558 51 0.0 0.0 0.00 0.00 0.00 84 1012.9
20260509045056 52 0.0 0.0 0.00 0.00 0.00 84 1012.8
20260509044558 52 0.0 0.0 0.00 0.00 0.00 84 1012.8
20260509044057 51 0.0 0.0 0.00 0.00 0.00 84 1012.9
20260509043556 51 0.0 0.0 0.00 0.00 0.00 83 1013.0
20260509043105 52 0.0 0.0 0.00 0.00 0.00 83 1012.9
20260509042558 52 0.0 0.0 0.00 0.00 0.00 83 1013.0
20260509042058 52 0.0 0.0 0.00 0.00 0.00 82 1013.0
20260509041559 52 0.0 0.0 0.00 0.00 0.00 82 1013.1
20260509041059 52 0.0 0.0 0.00 0.00 0.00 81 1013.1
20260509040557 52 0.0 0.0 0.00 0.00 0.00 81 1013.0
20260509040057 52 0.0 0.0 0.00 0.00 0.00 82 1013.1
20260509035556 52 0.0 0.0 0.00 0.00 0.00 82 1013.2
20260509035058 52 0.0 0.0 0.00 0.00 0.00 82 1013.1
20260509034558 52 0.0 0.0 0.00 0.00 0.00 81 1013.0
20260509034056 52 0.0 0.0 0.00 0.00 0.00 81 1012.9
20260509033556 52 0.0 0.0 0.00 0.00 0.00 81 1013.0
20260509033059 52 0.0 0.0 0.00 0.00 0.00 81 1013.0
20260509032557 52 0.0 0.0 0.00 0.00 0.00 81 1012.9
20260509032056 52 0.0 0.0 0.00 0.00 0.00 81 1012.9
20260509031558 52 0.0 0.0 0.00 0.00 0.00 81 1012.9
20260509031056 51 0.0 0.0 0.00 0.00 0.00 81 1013.0
20260509030559 51 0.0 0.0 0.00 0.00 0.00 80 1013.0
20260509030058 51 0.0 0.0 0.00 0.00 0.00 80 1012.9
20260509025601 51 0.0 0.0 0.00 0.00 0.00 79 1012.8
20260509025116 51 0.0 0.0 0.00 0.00 0.00 79 1012.7
20260509024555 51 0.0 0.0 0.00 0.00 0.00 79 1012.7
20260509024056 51 0.0 0.0 0.00 0.00 0.00 79 1012.6
20260509023558 51 0.0 0.0 0.00 0.00 0.00 80 1012.8
20260509023057 50 0.0 0.0 0.00 0.00 0.00 79 1012.7
20260509022556 50 0.0 0.0 0.00 0.00 0.00 78 1012.8
20260509022057 50 0.0 0.0 0.00 0.00 0.00 78 1012.7
20260509021558 50 0.0 0.0 0.00 0.00 0.00 78 1012.4
20260509021056 50 0.0 0.0 0.00 0.00 0.00 78 1012.4
20260509020556 50 0.0 0.0 0.00 0.00 0.00 77 1012.3
20260509020058 49 0.0 0.0 0.00 0.00 0.00 77 1012.3
20260509015556 49 0.0 0.0 0.00 0.00 0.00 77 1012.3
20260509015057 49 0.0 0.0 0.00 0.00 0.00 77 1012.3
20260509014558 49 0.0 0.0 0.00 0.00 0.00 78 1012.2
20260509014056 48 0.0 0.0 0.00 0.00 0.00 77 1012.3
20260509013556 49 0.0 0.0 0.00 0.00 0.00 77 1012.3
20260509013059 49 0.0 0.0 0.00 0.00 0.00 76 1012.2
20260509012557 49 0.0 0.0 0.00 0.00 0.00 76 1012.1
20260509012058 49 0.0 0.0 0.00 0.00 0.00 75 1012.2
20260509011558 49 0.0 0.0 0.00 0.00 0.00 74 1012.1
20260509011055 50 0.0 0.0 0.00 0.00 0.00 74 1012.0
20260509010556 50 0.0 0.0 0.00 0.00 0.00 73 1011.8
20260509010104 50 0.0 0.0 0.00 0.00 0.00 73 1011.8
20260509005557 50 0.0 0.0 0.00 0.00 0.00 73 1011.8
20260509005057 50 0.0 0.0 0.00 0.00 0.00 72 1011.7
20260509004621 51 0.0 0.0 0.00 0.00 0.00 71 1011.8
20260509004056 51 0.0 0.0 0.00 0.00 0.00 70 1011.6
20260509003602 51 0.0 0.0 0.00 0.00 0.00 70 1011.6
20260509003057 52 0.0 0.0 0.00 0.00 0.00 69 1011.6
20260509002558 52 0.0 0.0 0.00 0.00 0.00 68 1011.3
20260509002058 53 0.0 0.0 0.00 0.00 0.00 68 1011.2
20260509001557 53 0.0 0.0 0.00 0.00 0.00 67 1011.1
20260509001056 54 0.0 0.0 0.00 0.00 0.00 65 1011.0
20260509000558 55 0.0 0.0 0.00 0.00 0.00 64 1011.1
20260508235558 55 0.0 0.0 0.00 0.00 0.00 63 1011.1
20260508235101 55 0.0 0.0 0.00 0.00 0.00 63 1011.1
20260508234606 56 0.0 0.0 0.00 0.00 0.00 62 1011.0
20260508234058 56 0.0 0.0 0.00 0.00 0.00 62 1011.0
20260508233559 56 0.0 0.0 0.00 0.00 0.00 61 1010.9
20260508233058 56 2.0 7.0 0.00 0.00 0.00 60 1010.8
20260508232558 56 299 2.0 7.0 0.00 0.00 0.00 59 1010.7
20260508232058 56 329 2.0 5.0 0.00 0.00 0.00 58 1010.7
20260508231559 56 281 2.0 9.0 0.00 0.00 0.00 57 1010.7
20260508231057 57 293 2.0 9.0 0.00 0.00 0.00 56 1010.7
20260508230600 57 294 2.0 11.0 0.00 0.00 0.00 56 1010.6
20260508230057 58 294 3.0 11.0 0.00 0.00 0.00 54 1010.6
20260508225558 58 323 3.0 11.0 0.00 0.00 0.00 53 1010.4
20260508225057 58 279 5.0 11.0 0.00 0.00 0.00 54 1010.4
20260508224559 58 300 1.0 9.0 0.00 0.00 0.00 55 1010.4
20260508224100 58 271 3.0 9.0 0.00 0.00 0.00 54 1010.3
20260508223558 59 304 3.0 9.0 0.00 0.00 0.00 54 1010.2
20260508223057 59 273 3.0 11.0 0.00 0.00 0.00 54 1010.2
20260508222557 59 300 5.0 11.0 0.00 0.00 0.00 52 1010.1
20260508222058 59 291 3.0 10.0 0.00 0.00 0.00 52 1010.0
20260508221558 59 307 2.0 13.0 0.00 0.00 0.00 53 1010.1
20260508221058 59 306 3.0 13.0 0.00 0.00 0.00 53 1010.1
20260508220557 59 259 5.0 14.0 0.00 0.00 0.00 52 1010.3
20260508215558 60 269 6.0 14.0 0.00 0.00 0.00 52 1010.3
20260508215058 60 286 4.0 13.0 0.00 0.00 0.00 52 1010.1
20260508214610 60 54 4.0 13.0 0.00 0.00 0.00 51 1010.2
20260508214057 60 275 7.0 13.0 0.00 0.00 0.00 50 1010.3
20260508213558 60 296 5.0 16.0 0.00 0.00 0.00 50 1010.4
20260508213055 60 301 5.0 16.0 0.00 0.00 0.00 51 1010.4
20260508212558 60 318 5.0 14.0 0.00 0.00 0.00 52 1010.3
20260508212059 60 311 6.0 14.0 0.00 0.00 0.00 52 1010.4
20260508211559 60 244 5.0 14.0 0.00 0.00 0.00 53 1010.4
20260508211056 60 290 4.0 13.0 0.00 0.00 0.00 54 1010.4
20260508210600 60 280 3.0 10.0 0.00 0.00 0.00 54 1010.3
20260508205555 60 302 4.0 12.0 0.00 0.00 0.00 53 1010.4
20260508205056 60 265 3.0 12.0 0.00 0.00 0.00 54 1010.4
20260508204605 60 217 4.0 14.0 0.00 0.00 0.00 55 1010.3
20260508204057 60 286 7.0 16.0 0.00 0.00 0.00 53 1010.4